When you browse on this site, cookies collect data to enhance your experience and personalize the content and advertising you see.
Visit our Privacy Policy to learn more. By continuing to use the site, you agree to this use of cookies and data.
  • In United Kingdom
  • List of Countries
  • For 7 days
  • Water Temperature
  • Satellite Maps
  • Weather Map
  • Weather Widgets
  • user-avatar
    Login

    Hourly Weather Tarin Kowt

    Today, 19 July, Friday

    Time Temperature Precipitation Wind Pressure Humidity
    00:00 +25°C° 0 mm 1 mps 612 mmHg 10%
    01:00 +24°C° 0 mm 1 mps 612 mmHg 10%
    02:00 +23°C° 0 mm 1 mps 612 mmHg 11%
    03:00 +22°C° 0 mm 1 mps 612 mmHg 11%
    04:00 +22°C° 0 mm 1 mps 611 mmHg 12%
    05:00 +24°C° 0 mm 1 mps 613 mmHg 11%
    06:00 +27°C° 0 mm 2 mps 614 mmHg 11%
    07:00 +29°C° 0 mm 2 mps 616 mmHg 10%
    08:00 +31°C° 0 mm 2 mps 616 mmHg 10%
    09:00 +34°C° 0 mm 2 mps 616 mmHg 10%
    10:00 +34°C° 0 mm 1 mps 617 mmHg 9%
    11:00 +37°C° 0 mm 2 mps 617 mmHg 8%
    12:00 +38°C° 0 mm 2 mps 617 mmHg 7%
    13:00 +39°C° 0 mm 3 mps 617 mmHg 5%
    14:00 +40°C° 0 mm 3 mps 616 mmHg 5%
    15:00 +41°C° 0 mm 4 mps 616 mmHg 5%
    16:00 +41°C° 0 mm 4 mps 615 mmHg 4%
    17:00 +37°C° 0 mm 4 mps 615 mmHg 5%
    18:00 +35°C° 0 mm 4 mps 614 mmHg 6%
    19:00 +31°C° 0 mm 3 mps 613 mmHg 7%
    20:00 +30°C° 0 mm 3 mps 613 mmHg 7%
    21:00 +29°C° 0 mm 3 mps 613 mmHg 8%
    22:00 +28°C° 0 mm 2 mps 613 mmHg 8%
    23:00 +27°C° 0 mm 2 mps 613 mmHg 9%

    Tomorrow, 20 July, Saturday

    Time Temperature Precipitation Wind Pressure Humidity
    00:00 +25°C° 0 mm 1 mps 613 mmHg 10%
    01:00 +24°C° 0 mm 1 mps 613 mmHg 11%
    02:00 +23°C° 0 mm 1 mps 613 mmHg 12%
    03:00 +23°C° 0 mm 2 mps 613 mmHg 13%
    04:00 +23°C° 0 mm 2 mps 613 mmHg 15%
    05:00 +25°C° 0 mm 2 mps 614 mmHg 19%
    06:00 +26°C° 0 mm 3 mps 615 mmHg 24%
    07:00 +28°C° 0 mm 3 mps 616 mmHg 28%
    08:00 +30°C° 0 mm 2 mps 617 mmHg 25%
    09:00 +32°C° 0 mm 2 mps 617 mmHg 21%
    10:00 +35°C° 0 mm 2 mps 618 mmHg 18%
    11:00 +36°C° 0 mm 2 mps 618 mmHg 15%
    12:00 +38°C° 0 mm 2 mps 618 mmHg 12%
    13:00 +39°C° 0 mm 2 mps 618 mmHg 9%
    14:00 +39°C° 0 mm 2 mps 617 mmHg 8%
    15:00 +40°C° 0 mm 3 mps 617 mmHg 7%
    16:00 +40°C° 0 mm 3 mps 617 mmHg 5%
    17:00 +37°C° 0 mm 3 mps 616 mmHg 7%
    18:00 +35°C° 0 mm 3 mps 615 mmHg 8%
    19:00 +31°C° 0 mm 3 mps 615 mmHg 10%
    20:00 +30°C° 0 mm 2 mps 614 mmHg 11%
    21:00 +29°C° 0 mm 2 mps 614 mmHg 12%
    22:00 +27°C° 0 mm 1 mps 614 mmHg 13%
    23:00 +26°C° 0 mm 1 mps 614 mmHg 13%

    Day after tomorrow, 21 July, Sunday

    Time Temperature Precipitation Wind Pressure Humidity
    00:00 +26°C° 0 mm 2 mps 614 mmHg 13%
    01:00 +25°C° 0 mm 2 mps 614 mmHg 14%
    02:00 +24°C° 0 mm 2 mps 614 mmHg 14%
    03:00 +24°C° 0 mm 2 mps 614 mmHg 15%
    04:00 +23°C° 0 mm 2 mps 614 mmHg 16%
    05:00 +25°C° 0 mm 2 mps 615 mmHg 16%
    06:00 +27°C° 0 mm 2 mps 616 mmHg 16%
    07:00 +29°C° 0 mm 2 mps 617 mmHg 16%
    08:00 +31°C° 0 mm 2 mps 617 mmHg 14%
    09:00 +34°C° 0 mm 2 mps 618 mmHg 12%
    10:00 +36°C° 0 mm 2 mps 618 mmHg 9%
    11:00 +37°C° 0 mm 2 mps 618 mmHg 8%
    12:00 +38°C° 0 mm 2 mps 618 mmHg 7%
    13:00 +39°C° 0 mm 2 mps 618 mmHg 5%
    14:00 +40°C° 0 mm 2 mps 617 mmHg 5%
    15:00 +40°C° 0 mm 2 mps 617 mmHg 4%
    16:00 +40°C° 0 mm 3 mps 616 mmHg 3%
    17:00 +37°C° 0 mm 2 mps 615 mmHg 4%
    18:00 +32°C° 0 mm 2 mps 614 mmHg 5%
    19:00 +29°C° 0 mm 1 mps 613 mmHg 6%
    20:00 +28°C° 0 mm 1 mps 613 mmHg 8%
    21:00 +28°C° 0 mm 2 mps 614 mmHg 10%
    22:00 +27°C° 0 mm 2 mps 614 mmHg 13%
    23:00 +26°C° 0 mm 2 mps 614 mmHg 14%

    22 July, Monday

    Time Temperature Precipitation Wind Pressure Humidity
    00:00 +26°C° 0 mm 2 mps 614 mmHg 15%
    01:00 +25°C° 0 mm 2 mps 613 mmHg 16%
    02:00 +24°C° 0 mm 2 mps 613 mmHg 16%
    03:00 +24°C° 0 mm 2 mps 613 mmHg 16%
    04:00 +23°C° 0 mm 2 mps 613 mmHg 16%
    05:00 +25°C° 0 mm 3 mps 614 mmHg 15%
    06:00 +27°C° 0 mm 3 mps 615 mmHg 13%
    07:00 +29°C° 0 mm 3 mps 616 mmHg 12%
    08:00 +31°C° 0 mm 3 mps 616 mmHg 11%
    09:00 +34°C° 0 mm 4 mps 617 mmHg 10%
    10:00 +36°C° 0 mm 4 mps 617 mmHg 8%
    11:00 +37°C° 0 mm 3 mps 617 mmHg 7%
    12:00 +38°C° 0 mm 3 mps 617 mmHg 6%
    13:00 +40°C° 0 mm 2 mps 616 mmHg 5%
    14:00 +40°C° 0 mm 2 mps 616 mmHg 5%
    15:00 +40°C° 0 mm 2 mps 616 mmHg 4%
    16:00 +40°C° 0 mm 2 mps 615 mmHg 3%
    17:00 +37°C° 0 mm 2 mps 614 mmHg 5%
    18:00 +32°C° 0 mm 1 mps 613 mmHg 6%
    19:00 +29°C° 0 mm 1 mps 612 mmHg 7%
    20:00 +28°C° 0 mm 1 mps 612 mmHg 8%
    21:00 +27°C° 0 mm 1 mps 612 mmHg 10%
    22:00 +26°C° 0 mm 1 mps 612 mmHg 12%
    23:00 +25°C° 0 mm 1 mps 612 mmHg 14%

    23 July, Tuesday

    Time Temperature Precipitation Wind Pressure Humidity
    00:00 +25°C° 0 mm 2 mps 612 mmHg 16%
    01:00 +24°C° 0 mm 2 mps 612 mmHg 18%
    02:00 +24°C° 0 mm 2 mps 611 mmHg 20%
    03:00 +23°C° 0 mm 2 mps 611 mmHg 22%
    04:00 +22°C° 0 mm 3 mps 611 mmHg 23%
    05:00 +25°C° 0 mm 3 mps 612 mmHg 20%
    06:00 +27°C° 0 mm 3 mps 614 mmHg 17%
    07:00 +29°C° 0 mm 3 mps 615 mmHg 14%
    08:00 +31°C° 0 mm 3 mps 615 mmHg 14%
    09:00 +34°C° 0 mm 3 mps 616 mmHg 14%
    10:00 +36°C° 0 mm 2 mps 616 mmHg 14%
    11:00 +37°C° 0 mm 2 mps 616 mmHg 12%
    12:00 +39°C° 0 mm 2 mps 616 mmHg 10%
    13:00 +40°C° 0 mm 2 mps 616 mmHg 9%
    14:00 +40°C° 0 mm 2 mps 615 mmHg 8%
    15:00 +40°C° 0 mm 3 mps 615 mmHg 7%
    16:00 +42°C° 0 mm 4 mps 615 mmHg 6%
    17:00 +38°C° 0 mm 4 mps 614 mmHg 8%
    18:00 +36°C° 0 mm 4 mps 614 mmHg 9%
    19:00 +33°C° 0 mm 4 mps 613 mmHg 10%
    20:00 +31°C° 0 mm 3 mps 613 mmHg 11%
    21:00 +29°C° 0 mm 3 mps 613 mmHg 12%
    22:00 +28°C° 0 mm 2 mps 613 mmHg 13%
    23:00 +27°C° 0 mm 2 mps 612 mmHg 14%

    24 July, Wednesday

    Time Temperature Precipitation Wind Pressure Humidity
    00:00 +26°C° 0 mm 1 mps 612 mmHg 14%
    01:00 +25°C° 0 mm 1 mps 611 mmHg 15%
    02:00 +25°C° 0 mm 1 mps 611 mmHg 16%
    03:00 +24°C° 0 mm 1 mps 611 mmHg 16%
    04:00 +23°C° 0 mm 1 mps 611 mmHg 17%
    05:00 +26°C° 0 mm 2 mps 613 mmHg 15%
    06:00 +28°C° 0 mm 2 mps 614 mmHg 13%
    07:00 +30°C° 0 mm 2 mps 615 mmHg 11%
    08:00 +32°C° 0 mm 2 mps 615 mmHg 10%
    09:00 +34°C° 0 mm 1 mps 616 mmHg 9%
    10:00 +36°C° 0 mm 1 mps 616 mmHg 8%
    11:00 +38°C° 0 mm 2 mps 616 mmHg 8%
    12:00 +39°C° 0 mm 2 mps 616 mmHg 7%
    13:00 +40°C° 0 mm 3 mps 616 mmHg 7%
    14:00 +40°C° 0 mm 3 mps 615 mmHg 7%
    15:00 +41°C° 0 mm 4 mps 615 mmHg 6%
    16:00 +42°C° 0 mm 5 mps 614 mmHg 6%
    17:00 +38°C° 0 mm 4 mps 613 mmHg 8%
    18:00 +35°C° 0 mm 4 mps 613 mmHg 9%
    19:00 +33°C° 0 mm 3 mps 612 mmHg 10%
    20:00 +30°C° 0 mm 2 mps 612 mmHg 11%
    21:00 +28°C° 0 mm 2 mps 612 mmHg 11%
    22:00 +27°C° 0 mm 1 mps 612 mmHg 12%
    23:00 +26°C° 0 mm 1 mps 611 mmHg 13%
    Show more